Accueil
METAR-TAF:

METAR-TAF

Aéroports :

Pontoise, France

Aéroport de Pontoise - Cormeilles-en-Vexin

latitude: 49-05-48N, longitude: 002-02-27E, altitude: 99 m

Observation

Le bulletin a été fait il y a 15 minutes, à 16:30 UTC
Vent 7 kt de ouest, variant entre ouest/sud-ouest et nord-ouest
Température 20°C
Humidité 53%
Pression 1021 hPa
Visibilité 10 km ou plus
pas de nuages en-dessous de 1500 mètres et pas de cumulonimbus.

METAR: LFPT 191630Z AUTO 28007KT 240V310 CAVOK 20/10 Q1021

Heure: 18:45 (16:45 UTC)


TAF: absent

Observations et prévisions météorologiques de plus de 4000 aéroports (messages METAR et TAF).

Les stations disponibles sont représentées par des disques jaunes et rouges sur la carte.

Passer la souris dessus pour voir le nom de la station.

Cliquer dessus pour voir les observations et prévisions météorologiques.

Pour changer de carte: cliquez sur les boutons verts avec une croix noire pour zoomer, sur le bouton vert avec un tiret pour effectuer un zoom arrière, ou sur les flèches vertes pour les cartes adjacentes.


METAR-TAF: